Regional Weather Roundup
Issued by NWS Charleston, WV

Home | Current Version | Previous Version | Graphics & Text | Print | Product List | Glossary On
Versions: 1 2 3 4 5 6 7 8 9 10 11 12 13 14 15 16 17 18 19 20 21 22 23 24 25 26 27 28 29 30 31 32 33 34 35 36 37 38 39 40 41 42 43 44 45 46 47 48 49 50
353
ASUS41 KRLX 212010
RWRRLX
West Virginia Regional Weather Roundup
National Weather Service Charleston WV
400 PM EDT SUN MAY 21 2017

Note: "fair" indicates few or no clouds below 12,000 feet with no
significant weather and/or obstructions to visibility.

WVZ003-212100-
Northern Panhandle of West Virginia

CITY           SKY/WX    TMP DP  RH WIND       PRES   REMARKS
WHEELING       LGT RAIN  67  64  90 S8        30.06S
$$

WVZ009-212100-
Northwest West Virginia

CITY           SKY/WX    TMP DP  RH WIND       PRES   REMARKS
PARKERSBURG    CLOUDY    71  67  87 SW8       30.09F
$$

WVZ006-212100-
Western West Virginia

CITY           SKY/WX    TMP DP  RH WIND       PRES   REMARKS
HUNTINGTON     CLOUDY    70  66  87 S5        30.06F
$$

WVZ015-212100-
West Central West Virginia

CITY           SKY/WX    TMP DP  RH WIND       PRES   REMARKS
CHARLESTON     LGT RAIN  72  65  78 S9        30.08F
$$

WVZ022-031-212100-
North Central West Virginia

CITY           SKY/WX    TMP DP  RH WIND       PRES   REMARKS
CLARKSBURG     LGT RAIN  72  62  71 W10       30.09F
MORGANTOWN     CLOUDY    74  60  61 SW9       30.09S
$$

WVZ025-035-042-045-212100-
Southern West Virginia

CITY           SKY/WX    TMP DP  RH WIND       PRES   REMARKS
BECKLEY        LGT RAIN  66  61  84 S8        30.18F
LOGAN            N/A     68  64  88 CALM      30.11F
BLUEFIELD      RAIN      61  59  93 SE5       30.20F FOG
LEWISBURG      CLOUDY    66  59  78 CALM      30.19S
$$

WVZ047-212100-
Northern Mountains of West Virginia

CITY           SKY/WX    TMP DP  RH WIND       PRES   REMARKS
ELKINS         CLOUDY    73  58  59 S8G20     30.14F
$$

WVZ052-212100-
Eastern Panhandle of West Virginia

CITY           SKY/WX    TMP DP  RH WIND       PRES   REMARKS
MARTINSBURG    CLOUDY    65  43  44 SE9       30.21F
PETERSBURG     MOSUNNY   73  61  66 SE8       30.14F
$$




USA.gov is the U.S. government's official web portal to all federal, state and local government web resources and services.